PARUS-T1

operational
NORAD ID: 62656 Int'l Des: NNA 2025-009 Owner: TASA/PYRAS Country: J
LEOCIRCULARRETROGRADESSO

关于 PARUS-T1

正在加载描述...

实时位置

正在加载3D地球...

即将过境

高度历史

Altitude vs Time

uPlot chart will show altitude changes over time

两行轨道根数

1 62656U 25009AZ 25340.89726783 .00020497 00000-0 76932-3 0 9997
2 62656 97.4126 59.6449 0000654 15.2472 344.8787 15.27239496 49618
Epoch: Dec 6, 2025 • Age: 19 hours

当前状态

高度 490.9 km
速度 7.62 km/s
星下点 46.89°N, 86.64°E
发射日期 Jan 14, 2025
运行时间 0.8 years
类型 other

技术详情

分类 Payload
质量 4.00 kg
干质量 4.00 kg
总质量 4.00 kg
长度 0.30 m
直径 0.10 m
跨度 0.30 m
形状 Box
制造商 PYRAS
平台类型 Cubesat 3U
阶段状态 In Orbit
所有者/国家 TASA/PYRAS/J

大型星座

Loading constellations...